EN

Hourly Weather Piszkawa

Today, 25 October, Sunday

Time Temperature Precipitation Wind Pressure Humidity
00:00 +12°C° 0 mm 1 mps 750 mmHg 87%
01:00 +11°C° 0 mm 1 mps 750 mmHg 89%
02:00 +11°C° 0 mm 1 mps 749 mmHg 89%
03:00 +11°C° 0 mm 1 mps 749 mmHg 90%
04:00 +9°C° 0 mm 2 mps 749 mmHg 90%
05:00 +9°C° 0 mm 2 mps 749 mmHg 91%
06:00 +9°C° 0 mm 2 mps 749 mmHg 91%
07:00 +9°C° 0 mm 2 mps 749 mmHg 92%
08:00 +11°C° 0 mm 3 mps 749 mmHg 86%
09:00 +12°C° 0 mm 3 mps 748 mmHg 80%
10:00 +14°C° 0 mm 3 mps 748 mmHg 74%
11:00 +16°C° 0 mm 3 mps 748 mmHg 71%
12:00 +17°C° 0 mm 4 mps 747 mmHg 67%
13:00 +18°C° 0 mm 4 mps 747 mmHg 64%
14:00 +17°C° 0 mm 3 mps 747 mmHg 68%
15:00 +16°C° 0 mm 3 mps 746 mmHg 72%
16:00 +16°C° 0 mm 3 mps 745 mmHg 76%
17:00 +14°C° 0 mm 3 mps 746 mmHg 80%
18:00 +13°C° 0 mm 3 mps 746 mmHg 83%
19:00 +12°C° 0 mm 3 mps 746 mmHg 86%
20:00 +12°C° 0 mm 3 mps 745 mmHg 87%
21:00 +11°C° 0 mm 3 mps 745 mmHg 88%
22:00 +11°C° 0 mm 3 mps 745 mmHg 89%
23:00 +10°C° 0 mm 3 mps 745 mmHg 89%

Tomorrow, 26 October, Monday

Time Temperature Precipitation Wind Pressure Humidity
00:00 +10°C° 0 mm 2 mps 744 mmHg 90%
01:00 +10°C° 0 mm 2 mps 744 mmHg 91%
02:00 +10°C° 0 mm 2 mps 744 mmHg 91%
03:00 +9°C° 0 mm 2 mps 743 mmHg 92%
04:00 +9°C° 0 mm 2 mps 743 mmHg 92%
05:00 +9°C° 0 mm 2 mps 743 mmHg 92%
06:00 +9°C° 0 mm 2 mps 743 mmHg 92%
07:00 +9°C° 0 mm 2 mps 743 mmHg 93%
08:00 +12°C° 0 mm 2 mps 743 mmHg 86%
09:00 +13°C° 0 mm 2 mps 743 mmHg 80%
10:00 +15°C° 0 mm 2 mps 743 mmHg 74%
11:00 +14°C° 0 mm 3 mps 742 mmHg 74%
12:00 +14°C° 0 mm 3 mps 742 mmHg 75%
13:00 +14°C° 0 mm 4 mps 742 mmHg 75%
14:00 +14°C° 0.1 mm 4 mps 742 mmHg 76%
15:00 +14°C° 0.1 mm 3 mps 742 mmHg 77%
16:00 +14°C° 0.1 mm 3 mps 742 mmHg 78%
17:00 +13°C° 0 mm 3 mps 742 mmHg 80%
18:00 +13°C° 0 mm 3 mps 742 mmHg 81%
19:00 +12°C° 0 mm 3 mps 743 mmHg 83%
20:00 +13°C° 0 mm 2 mps 743 mmHg 86%
21:00 +12°C° 0 mm 2 mps 743 mmHg 90%
22:00 +10°C° 0 mm 2 mps 743 mmHg 94%
23:00 +10°C° 0 mm 2 mps 743 mmHg 94%

Day after tomorrow, 27 October, Tuesday

Time Temperature Precipitation Wind Pressure Humidity
00:00 +10°C° 0 mm 1 mps 743 mmHg 95%
01:00 +10°C° 0 mm 1 mps 743 mmHg 96%
02:00 +10°C° 0 mm 1 mps 743 mmHg 95%
03:00 +11°C° 0 mm 1 mps 743 mmHg 95%
04:00 +11°C° 0 mm 1 mps 743 mmHg 94%
05:00 +11°C° 0.1 mm 1 mps 743 mmHg 94%
06:00 +11°C° 0.1 mm 1 mps 743 mmHg 94%
07:00 +10°C° 0.1 mm 2 mps 743 mmHg 94%
08:00 +10°C° 0.2 mm 2 mps 744 mmHg 93%
09:00 +10°C° 0.2 mm 2 mps 744 mmHg 92%
10:00 +10°C° 0.2 mm 2 mps 744 mmHg 92%
11:00 +12°C° 0.1 mm 2 mps 744 mmHg 90%
12:00 +12°C° 0.1 mm 1 mps 744 mmHg 89%
13:00 +12°C° 0.1 mm 1 mps 744 mmHg 88%
14:00 +12°C° 0.1 mm 1 mps 744 mmHg 90%
15:00 +12°C° 0.1 mm 2 mps 744 mmHg 91%
16:00 +10°C° 0.1 mm 2 mps 744 mmHg 93%
17:00 +10°C° 0.2 mm 2 mps 745 mmHg 93%
18:00 +10°C° 0.2 mm 2 mps 745 mmHg 94%
19:00 +10°C° 0.2 mm 2 mps 746 mmHg 94%
20:00 +9°C° 0 mm 2 mps 746 mmHg 94%
21:00 +9°C° 0 mm 2 mps 747 mmHg 95%
22:00 +10°C° 0 mm 1 mps 747 mmHg 95%
23:00 +9°C° 0 mm 1 mps 747 mmHg 95%

28 October, Wednesday

Time Temperature Precipitation Wind Pressure Humidity
00:00 +9°C° 0 mm 1 mps 747 mmHg 95%
01:00 +7°C° 0 mm 2 mps 747 mmHg 95%
02:00 +7°C° 0 mm 2 mps 747 mmHg 93%
03:00 +7°C° 0 mm 2 mps 748 mmHg 92%
04:00 +7°C° 0 mm 2 mps 748 mmHg 91%
05:00 +7°C° 0 mm 2 mps 748 mmHg 90%
06:00 +6°C° 0 mm 2 mps 748 mmHg 89%
07:00 +6°C° 0 mm 2 mps 748 mmHg 88%
08:00 +8°C° 0 mm 3 mps 748 mmHg 84%
09:00 +9°C° 0 mm 3 mps 748 mmHg 79%
10:00 +11°C° 0 mm 3 mps 748 mmHg 75%
11:00 +12°C° 0 mm 3 mps 748 mmHg 69%
12:00 +13°C° 0 mm 3 mps 748 mmHg 64%
13:00 +14°C° 0 mm 3 mps 748 mmHg 58%
14:00 +13°C° 0 mm 3 mps 747 mmHg 61%
15:00 +13°C° 0 mm 3 mps 747 mmHg 64%
16:00 +12°C° 0 mm 3 mps 747 mmHg 67%
17:00 +11°C° 0 mm 3 mps 748 mmHg 69%
18:00 +11°C° 0 mm 3 mps 748 mmHg 72%
19:00 +10°C° 0 mm 3 mps 748 mmHg 74%
20:00 +10°C° 0 mm 3 mps 748 mmHg 75%
21:00 +10°C° 0 mm 3 mps 748 mmHg 77%
22:00 +9°C° 0 mm 3 mps 748 mmHg 78%
23:00 +9°C° 0 mm 3 mps 748 mmHg 79%

29 October, Thursday

Time Temperature Precipitation Wind Pressure Humidity
00:00 +9°C° 0 mm 3 mps 748 mmHg 80%
01:00 +9°C° 0 mm 3 mps 748 mmHg 80%
02:00 +9°C° 0 mm 3 mps 748 mmHg 78%
03:00 +9°C° 0 mm 3 mps 748 mmHg 77%
04:00 +10°C° 0 mm 4 mps 748 mmHg 75%
05:00 +10°C° 0 mm 4 mps 748 mmHg 74%
06:00 +10°C° 0 mm 4 mps 748 mmHg 74%
07:00 +10°C° 0 mm 4 mps 748 mmHg 73%
08:00 +10°C° 0 mm 5 mps 749 mmHg 71%
09:00 +12°C° 0 mm 5 mps 749 mmHg 68%
10:00 +13°C° 0 mm 6 mps 749 mmHg 66%
11:00 +14°C° 0 mm 6 mps 749 mmHg 64%
12:00 +14°C° 0 mm 6 mps 749 mmHg 62%
13:00 +15°C° 0 mm 6 mps 750 mmHg 60%
14:00 +14°C° 0 mm 5 mps 750 mmHg 63%
15:00 +13°C° 0 mm 4 mps 750 mmHg 67%
16:00 +12°C° 0 mm 3 mps 750 mmHg 71%
17:00 +11°C° 0 mm 3 mps 751 mmHg 73%
18:00 +11°C° 0 mm 3 mps 751 mmHg 75%
19:00 +10°C° 0 mm 3 mps 752 mmHg 78%
20:00 +10°C° 0 mm 3 mps 752 mmHg 78%
21:00 +9°C° 0 mm 3 mps 752 mmHg 79%
22:00 +9°C° 0 mm 3 mps 752 mmHg 80%
23:00 +8°C° 0 mm 4 mps 752 mmHg 81%

30 October, Friday

Time Temperature Precipitation Wind Pressure Humidity
00:00 +8°C° 0 mm 4 mps 752 mmHg 82%
01:00 +8°C° 0 mm 4 mps 752 mmHg 83%
02:00 +8°C° 0 mm 4 mps 752 mmHg 83%
03:00 +8°C° 0 mm 4 mps 752 mmHg 83%
04:00 +8°C° 0 mm 4 mps 752 mmHg 82%
05:00 +10°C° 0 mm 4 mps 752 mmHg 81%
06:00 +10°C° 0 mm 4 mps 752 mmHg 80%
07:00 +10°C° 0 mm 4 mps 752 mmHg 78%
08:00 +11°C° 0 mm 4 mps 752 mmHg 77%
09:00 +12°C° 0 mm 4 mps 753 mmHg 76%
10:00 +12°C° 0 mm 4 mps 753 mmHg 75%
11:00 +13°C° 0 mm 4 mps 753 mmHg 73%
12:00 +14°C° 0 mm 4 mps 753 mmHg 70%
13:00 +15°C° 0 mm 5 mps 753 mmHg 68%
14:00 +15°C° 0 mm 4 mps 753 mmHg 70%
15:00 +14°C° 0 mm 4 mps 753 mmHg 72%
16:00 +14°C° 0 mm 4 mps 752 mmHg 75%
17:00 +13°C° 0 mm 4 mps 753 mmHg 76%
18:00 +12°C° 0 mm 3 mps 753 mmHg 78%
19:00 +12°C° 0 mm 3 mps 753 mmHg 79%
20:00 +11°C° 0 mm 3 mps 753 mmHg 79%
21:00 +11°C° 0 mm 3 mps 753 mmHg 78%
22:00 +11°C° 0 mm 3 mps 753 mmHg 78%
23:00 +10°C° 0 mm 3 mps 753 mmHg 78%
Show more

We Need Your Consent

Meteoprog and our Service Providers may store and access personal data such as cookies, device identifiers or other similar technologies on your device and process such data to personalise content and ads, as well as provide social media features and to analyse the traffic.

  • Store and/or access information on your device

    Cookies, device identifiers or other information can be stored or accessed on your device for the purposes indicated above.

  • Personalised ads and content, ad and content measurement, audience insights, and products development

    Ads and content can be personalised based on a profile. More data can be added to better personalise ads and content. Ad and content performance can be measured. Insights about the audience who saw the ads and content can be derived. Such data can be used to develop or improve user’s experience, systems and software.

By clicking ‘I Agree’ you will allow the use of indicated cookies, device identifiers, web beacons or other similar technologies. Your settings can be changed in the browser on your device.

For certain purposes, legitimate interests may be relied on, rather than consent. You can read more about this in our Privacy and Cookie Policy.